Showing default

TOMORROW-S1, 60479

Orbit data source: Space-Track

TOMORROW-S1, 60479 is a payload satellite owned by Tomorrow.io (US) in SSO that was launched on Fri, 16 Aug 2024 UTC via an FALCON 9 launch vehicle from the Air Force Western Test Range (AFWTR). Payload-class satellites include a variety of spacecraft equipped with specific instruments for various scientific and technological missions. These include communications satellites like Starlink; space stations such as the ISS; scientific satellites like the Hubble; Earth observation satellites from companies like Planet Labs, Umbra, and HawkEye 360; GPS; miniature CubeSats for education and research; and military/defense satellites.

Loading next visibility...
Identifier
60479, 2024-149M
Orbit
SSO
Country
Flag of USUS
Related business
Manufacturer
Blue Canyon
Mission
Operational Commercial Weather
Bus & Motor
CUBESAT 6U, Unknown motor
Mass
12 kg wet, 12 kg dry
Launch date (UTC)
2024-08-16 (2 years ago)
Launch vehicle
FALCON 9
Launch site
Air Force Western Test Range (AFWTR)
Object type
Payload
Rocket body
Debris
Shape & HBR
Box + 2 Pan, 1.0 m
Radar Cross Section
0.138 m², Medium (>0.1 m² and < 1m²)

Expand to show TLE details & history
Last TLE update: 14 hours ago

TLE from 14 hours ago
0 TOMORROW-S1
1 60479U 24149M   26264.78578431  .00005061  00000-0  15674-3 0  9997
2 60479  97.3693 345.0013 0001046 236.3753 123.7390 15.33907828116897
Epoch: 2026-09-21T18:51Z
TLE epoch observation values (Epoch: 2026-09-21T18:51:31.764Z)
Latitude
-0.00002°
Longitude
61.45833°
Altitude
467.674 km
Speed
7.632 km/s
True Right ascension
23h 00m 00s
True Declination
0° 00' 00"
Sunlit
Object was in full shadow at epoch
Visualization orbit readout
Latitude
Unknown
Longitude
Unknown
Altitude
Unknown
Speed
Unknown
Apparent Right ascension
Unknown
Apparent Declination
Unknown
Sunlit
N/A
Visualization observer readout
Local Sidereal Time
02:01:13
Azimuth
Unknown
Elevation
Unknown
Doppler factor
Unknown
Orbital elements
Apogee altitude
461.828 km
Perigee altitude
460.397 km
Semi-major axis
6,839.249 km
Eccentricity
0.0001
Inclination
97.3693°
RAAN
345.0013°
Arg. of periapsis
236.3753°
True anomaly
123.74897°
Mean anomaly
123.739°
Eccentric anomaly
123.74398°
Mean motion
3.83734 °/min
Orbital period
93.81 mins
BSTAR
0.00015674
Loading maneuver chart data...
Computing Atmospheric mass density...

Documentation

Showing up to 5 results
|